Bloomington, IL

5:16 AM CST on December 05, 2016 (GMT -0600)
Central Ill Regional

Weather History for KBMI - September, 2014

Change the Weather History Date:

Thursday, September 4, 2014

  Actual Average Record
Temperature  
Mean Temperature 78 °F -  
Max Temperature 88 °F 86 °F 95 °F (2007)
Min Temperature 68 °F 55 °F 46 °F (1997)
Cooling Degree Days 13    
Growing Degree Days 28 (Base 50)    
Moisture  
Dew Point 69 °F    
Average Humidity 79    
Maximum Humidity 90    
Minimum Humidity 63    
Precipitation  
Precipitation 0.03 in - - ()
Sea Level Pressure  
Sea Level Pressure 29.98 in    
Wind  
Wind Speed 12 mph (South)    
Max Wind Speed 17 mph    
Max Gust Speed -    
Visibility 9 miles    
Events Rain , Thunderstorm    
Averages and records for this station are not official NWS values.
T = Trace of Precipitation, MM = Missing Value Source: NWS Daily Summary

Daily Weather History Graph

Daily Weather History Graph

Search for Another Location

Airport or City:

Trip Planner

Search our weather history database for the weather conditions in past years. The results will help you decide how hot, cold, wet, or windy it might be!

Date:

Astronomy

Sep. 04, 2014 Rise Set
Actual Time 6:25 AM CDT 7:22 PM CDT
Civil Twilight 5:57 AM CDT 7:50 PM CDT
Nautical Twilight 5:24 AM CDT 8:23 PM CDT
Astronomical Twilight 4:50 AM CDT 8:57 PM CDT
Moon 4:00 PM CDT (9/4) 1:15 AM CDT (9/4)
Length of Visible Light 13h 52m
Length of Day
12h 56m
Waxing Gibbous, 74% of the Moon is Illuminated
Sep 4
Waxing Gibbous
Sep 8
Full
Sep 15
Last Quarter
Sep 24
New
Oct 1
First Quarter

Hourly Weather History & Observations

Time (CDT) Temp. Heat Index Dew Point Humidity Pressure Visibility Wind Dir Wind Speed Gust Speed Precip Events Conditions
12:56 AM 70.9 °F - 64.9 °F 81% 29.97 in 10.0 mi South 12.7 mph - N/A   Clear
1:56 AM 70.0 °F - 64.9 °F 84% 29.98 in 10.0 mi South 11.5 mph - N/A   Clear
2:56 AM 70.0 °F - 64.9 °F 84% 29.96 in 10.0 mi South 16.1 mph - N/A   Clear
3:56 AM 68.9 °F - 63.9 °F 84% 29.96 in 10.0 mi South 11.5 mph - N/A   Clear
4:56 AM 68.0 °F - 63.9 °F 87% 29.96 in 10.0 mi SSW 10.4 mph - N/A   Clear
5:56 AM 70.0 °F - 63.9 °F 81% 29.96 in 10.0 mi SSW 11.5 mph - N/A   Clear
6:56 AM 70.9 °F - 64.9 °F 81% 29.98 in 10.0 mi SSW 9.2 mph - N/A   Scattered Clouds
7:56 AM 70.0 °F - 64.9 °F 84% 30.04 in 10.0 mi West 6.9 mph - N/A   Mostly Cloudy
8:06 AM 69.8 °F - 66.2 °F 88% 30.07 in 8.0 mi West 8.1 mph - 0.00 in Rain , Thunderstorm Light Thunderstorms and Rain
8:48 AM 69.8 °F - 66.2 °F 88% 30.03 in 2.5 mi SSE 6.9 mph - 0.03 in Rain , Thunderstorm Thunderstorms and Rain
8:56 AM 68.9 °F - 65.8 °F 90% 29.99 in 3.0 mi SSE 8.1 mph - 0.03 in Rain Light Rain
9:56 AM 70.9 °F - 66.9 °F 87% 30.01 in 10.0 mi South 11.5 mph - 0.00 in   Partly Cloudy
10:56 AM 77.0 °F - 68.9 °F 76% 30.01 in 10.0 mi SSE 10.4 mph - N/A   Partly Cloudy
11:56 AM 79.0 °F - 68.9 °F 71% 30.02 in 10.0 mi SE 9.2 mph - 0.00 in   Mostly Cloudy
12:56 PM 81.9 °F 84.8 °F 68.0 °F 63% 30.01 in 10.0 mi ESE 12.7 mph - N/A   Scattered Clouds
1:56 PM 84.9 °F 90.1 °F 70.9 °F 63% 29.99 in 10.0 mi SSE 15.0 mph - N/A   Clear
2:56 PM 88.0 °F 96.5 °F 73.9 °F 63% 29.96 in 10.0 mi South 17.3 mph - N/A   Partly Cloudy
3:56 PM 86.9 °F 95.0 °F 73.9 °F 65% 29.95 in 10.0 mi South 15.0 mph - N/A   Clear
4:56 PM 88.0 °F 96.5 °F 73.9 °F 63% 29.92 in 10.0 mi South 17.3 mph - N/A   Partly Cloudy
5:56 PM 86.9 °F 95.0 °F 73.9 °F 65% 29.92 in 10.0 mi South 16.1 mph - N/A   Clear
6:56 PM 82.9 °F 89.4 °F 73.9 °F 74% 29.92 in 10.0 mi South 15.0 mph - N/A   Clear
7:56 PM 79.9 °F - 73.9 °F 82% 29.93 in 10.0 mi South 13.8 mph - N/A   Clear
8:56 PM 79.0 °F - 73.9 °F 84% 29.95 in 10.0 mi South 15.0 mph - N/A   Clear
10:56 PM 75.9 °F - 72.9 °F 90% 29.98 in 10.0 mi South 11.5 mph - N/A   Clear
11:56 PM 75.9 °F - 72.9 °F 90% 30.00 in 10.0 mi South 10.4 mph - N/A   Clear